Regional Weather Roundup
Issued by NWS

Home | Current Version | Previous Version | Text Only | Print | Product List | Glossary Off
Versions: 1 2 3 4 5 6 7 8 9 10 11 12 13 14 15 16 17 18 19 20 21 22 23 24 25 26 27 28 29 30 31 32 33 34 35 36 37 38 39 40 41 42 43 44 45 46 47 48 49 50

000
ASUS45 KBOU 112110
RWRCO

WEATHER ROUNDUP FOR COLORADO
NATIONAL WEATHER SERVICE DENVER/BOULDER CO
300 PM MDT FRI JUL 11 2014

NOTE: "FAIR" INDICATES FEW OR NO CLOUDS BELOW 12000 FEET WITH NO
SIGNIFICANT WEATHER AND/OR OBSTRUCTIONS TO VISIBILITY.

COZ001>005-013-030-031-112200-
...NORTHWEST COLORADO...

CITY           SKY/WX    TMP DP  RH WIND       PRES   REMARKS
CRAIG          LGT RAIN  66  59  78 S13       30.18F
HAYDEN         PTSUNNY   75  48  38 W21G26    30.20F THUNDER
MEEKER         MOSUNNY   77  61  57 N8        30.19S
MOUNT WERNER   NOT AVBL
STEAMBOAT SPGS PTSUNNY   79  52  39 CALM      30.22F
WALDEN         CLOUDY    73  45  35 SW9G16    30.32F
$$

COZ006>008-011-112200-
...WEST CENTRAL VALLEYS...

CITY           SKY/WX    TMP DP  RH WIND       PRES   REMARKS
GRAND JUNCTION MOSUNNY   91  52  26 W9G18     30.05F
MONTROSE       PTSUNNY   85  50  29 E7        30.16F
EAGLE          MOSUNNY   81  54  39 SW14G25   30.22R
RIFLE          PTSUNNY   86  52  30 E15       30.10F
DELTA          PTSUNNY   94  49  21 S9        30.08F
NUCLA          PTSUNNY   90  41  18 SW9G18    30.19F
$$

COZ017>023-064>068-112200-
...SOUTHWEST COLORADO...

CITY           SKY/WX    TMP DP  RH WIND       PRES   REMARKS
DURANGO        MOSUNNY   86  44  23 W13       30.21F
CORTEZ         SUNNY     88  47  24 W7        30.17F
PAGOSA SPRINGS MOSUNNY   82  38  20 SW8G17    30.29F
TELLURIDE      PTSUNNY   70  48  46 W3        30.44S THUNDER
WOLF CREEK PAS NOT AVBL
$$

COZ009-010-012-014-032>034-037-058>063-112200-
...CENTRAL COLORADO...

CITY           SKY/WX    TMP DP  RH WIND       PRES   REMARKS
ASPEN          PTSUNNY   76  53  44 N10       30.30F
BUENA VISTA    TSTM      77  42  29 W3        30.31R
COPPER MTN     PTSUNNY   59  43  55 W15G22    30.68R THUNDER
BERTHOUD PASS  CLOUDY    45  32  61 E23       30.71S THUNDER
COTTONWOOD PAS CLOUDY    68  37  32 SW13G24   30.48S THUNDER
GUNNISON       PTSUNNY   75  48  38 N10       30.33F
KREMMLING      MOSUNNY   82  34  17 NW12G20   30.26S
LEADVILLE      LGT RAIN  55  48  77 SE6       30.51R
SALIDA         CLOUDY   N/A N/A N/A SW3       30.35S
SUNLIGHT       CLOUDY    55  52  88 CALM      30.58S
WILKERSON PASS TSTM      48  45  87 W12G21    30.65R
$$

COZ069>075-112200-
...SAN LUIS VALLEY/SANGRE DE CRISTO MOUNTAINS...

CITY           SKY/WX    TMP DP  RH WIND       PRES   REMARKS
ALAMOSA        PTSUNNY   83  45  26 W21G29    30.27S
LA VETA PASS   PTSUNNY   66  43  42 CALM      30.52S
SAGUACHE       CLOUDY    77  50  38 NW17G23   30.33F THUNDER
$$

COZ035-036-038>040-112200-
...NORTHERN COLORADO FRONT RANGE...

CITY           SKY/WX    TMP DP  RH WIND       PRES   REMARKS
DENVER INTL AP PTSUNNY   90  50  25 E12       30.10F
DMNS CITY PARK   N/A     88  50  26 S2        30.10F
AURORA         PTSUNNY   88  52  29 SE8       30.13S
FRONT RANGE AP NOT AVBL
ERIE MUNI ARPT PTSUNNY   86  56  36 NW12      30.10R
BOULDER MUN AP PTSUNNY   82  54  36 NW6       30.12R
CENTENNIAL     PTSUNNY   86  50  28 N8G18     30.13F THUNDER
BROOMFIELD     PTSUNNY   86  66  51 N9        30.15
FORT COLLINS   MOSUNNY   84  55  37 N16       30.10R
LONGMONT       PTSUNNY   86  53  32 N5        30.12R
$$

COZ041-046-047-076>085-087-088-112200-
...PIKES PEAK/PALMER DIVIDE AND SOUTHERN FOOTHILLS...

CITY           SKY/WX    TMP DP  RH WIND       PRES   REMARKS
COLO. SPRINGS  TSTM      82  48  30 N12       30.16S
A. F. ACADEMY  MOSUNNY   82  47  29 E10       30.19S
ELLICOTT       NOT AVBL
FALCON         TSTM      70  57  63 E8        30.24S
FORT CARSON    PTSUNNY   88  48  25 W14       30.12R
LIMON          SUNNY     89  55  31 NE12      30.10F
MONUMENT HILL  PTSUNNY   82  43  24 SE12G18   30.23F
TRINIDAD       SUNNY     94  44  17 SE7       30.10F
$$

COZ042>045-048>051-090-091-112200-
...NORTHEAST COLORADO...

CITY           SKY/WX    TMP DP  RH WIND       PRES   REMARKS
GREELEY ARPT   MOSUNNY   88  55  33 NW6       30.08
AKRON          MOSUNNY   87  59  38 E9G20     30.06F
BURLINGTON     SUNNY     95  52  23 VRB3      30.00F
WRAY             N/A     97  57  26 N10G16    29.98F
STERLING       SUNNY     93  66  40 NE10G16   30.01S
HOLYOKE        SUNNY     95  66  38 NE7       30.02F
FORT MORGAN    SUNNY     92  55  28 E9G20     30.05F
$$

COZ086-089-092>099-112200-
...SOUTHEAST COLORADO...

CITY           SKY/WX    TMP DP  RH WIND       PRES   REMARKS
PUEBLO         MOSUNNY   95  49  20 SE9       30.00F
LA JUNTA       SUNNY     97  52  21 VRB3      29.97F
LAMAR          SUNNY    102  50  17 S28G39    29.92S
SPRINGFIELD      N/A     93  49  22 S26G37    30.05F
$$


USA.gov is the U.S. government's official web portal to all federal, state and local government web resources and services.